Location: Nitra
(0.0000°N, 18.0833°E)
Time: 03:19:14
(UTC+01:00)

CZ-4C R/B - Pass Details

Date: 25 September 2022
Orbit: 570 x 1430 km, 63.4° (Epoch: 01 December)

Event Time Altitude Azimuth Distance (km) Brightness Sun altitude
Rises 21:41:01 0° 317° (NW) 4,425 6.3 -45.4°
Reaches altitude 10° 21:44:12 10° 309° (NW) 3,499 5.7 -46.2°
Enters shadow 21:51:25 35° 255° (WSW) 2,155 4.4 -48.0°
